CW9687 Weather Reports


Display with metric or nautical units.
time (UTC)temp
F
wind
direction
speed
MPH
gust
MPH
rain 1hr
in
rain 24hr
in
rain mn
in
humidity
%
barometer
mb
20200331172556 67 26 6.0 12.0 0.00 0.00 0.00 50 1019.8
20200331172051 67 33 3.0 10.0 0.00 0.00 0.00 53 1019.8
20200331171629 66 46 5.0 11.0 0.00 0.00 0.00 53 1019.8
20200331171050 66 35 6.0 11.0 0.00 0.00 0.00 52 1019.7
20200331170547 66 37 2.0 12.0 0.00 0.00 0.00 54 1019.7
20200331170056 66 14 2.0 12.0 0.00 0.00 0.00 53 1019.8
20200331165550 66 15 3.0 11.0 0.00 0.00 0.00 57 1019.8
20200331165048 65 53 1.0 11.0 0.00 0.00 0.00 56 1020.0
20200331164635 65 34 1.0 10.0 0.00 0.00 0.00 55 1020.1
20200331164050 65 319 3.0 10.0 0.00 0.00 0.00 56 1020.2
20200331163547 65 40 2.0 9.0 0.00 0.00 0.00 56 1020.3
20200331163109 64 30 2.0 8.0 0.00 0.00 0.00 57 1020.5
20200331162542 64 26 3.0 8.0 0.00 0.00 0.00 58 1020.6
20200331162101 64 334 0.0 5.0 0.00 0.00 0.00 58 1020.7
20200331161550 63 329 0.0 9.0 0.00 0.00 0.00 59 1020.7
20200331161038 63 336 2.0 9.0 0.00 0.00 0.00 60 1020.6
20200331160536 62 340 1.0 10.0 0.00 0.00 0.00 60 1020.7
20200331160240 62 31 0.0 11.0 0.00 0.00 0.00 62 1020.7
20200331155602 62 348 4.0 11.0 0.00 0.00 0.00 61 1020.7
20200331155103 62 345 0.0 6.0 0.00 0.00 0.00 63 1020.8
20200331154656 61 360 3.0 6.0 0.00 0.00 0.00 61 1020.8
20200331154138 61 18 0.0 9.0 0.00 0.00 0.00 64 1020.9
20200331153551 60 19 3.0 9.0 0.00 0.00 0.00 63 1020.9
20200331153116 60 323 2.0 9.0 0.00 0.00 0.00 66 1020.9
20200331152547 59 13 0.0 10.0 0.00 0.00 0.00 65 1020.9
20200331152101 59 13 3.0 10.0 0.00 0.00 0.00 66 1021.0
20200331151603 58 355 1.0 9.0 0.00 0.00 0.00 67 1020.9
20200331151045 58 334 0.0 8.0 0.00 0.00 0.00 67 1021.0
20200331150543 57 351 1.0 8.0 0.00 0.00 0.00 68 1021.0
20200331150020 57 335 0.0 5.0 0.00 0.00 0.00 68 1021.1
20200331145511 57 336 0.0 5.0 0.00 0.00 0.00 68 1021.0
20200331145014 56 329 3.0 5.0 0.00 0.00 0.00 69 1021.0
20200331144519 56 325 1.0 5.0 0.00 0.00 0.00 70 1021.0
20200331144008 55 323 1.0 5.0 0.00 0.00 0.00 70 1021.2
20200331143515 55 323 0.0 5.0 0.00 0.00 0.00 72 1021.2
20200331143029 54 323 0.0 3.0 0.00 0.00 0.00 73 1021.3
20200331142504 54 323 0.0 4.0 0.00 0.00 0.00 73 1021.1
20200331142007 54 323 1.0 5.0 0.00 0.00 0.00 73 1021.0
20200331141502 53 322 2.0 8.0 0.00 0.00 0.00 74 1021.1
20200331141104 53 331 1.0 8.0 0.00 0.00 0.00 75 1020.9
20200331140558 53 313 0.0 6.0 0.00 0.00 0.00 75 1021.0
20200331140059 53 313 0.0 8.0 0.00 0.00 0.00 74 1021.0
20200331135554 53 302 0.0 8.0 0.00 0.00 0.00 74 1020.9
20200331135056 53 321 0.0 3.0 0.00 0.00 0.00 73 1020.8
20200331134555 54 321 0.0 1.0 0.00 0.00 0.00 73 1020.8
20200331134057 54 321 0.0 5.0 0.00 0.00 0.00 73 1020.8
20200331133550 54 321 0.0 5.0 0.00 0.00 0.00 73 1020.9
20200331133107 54 317 0.0 4.0 0.00 0.00 0.00 73 1020.7
20200331132548 54 337 0.0 4.0 0.00 0.00 0.00 72 1020.7
20200331132055 54 336 0.0 5.0 0.00 0.00 0.00 72 1020.7
20200331131608 54 342 0.0 8.0 0.00 0.00 0.00 72 1020.7
20200331131047 54 355 2.0 8.0 0.00 0.00 0.00 72 1020.7
20200331130605 54 355 2.0 8.0 0.00 0.00 0.00 72 1020.8
20200331130059 55 322 1.0 10.0 0.00 0.00 0.00 72 1020.6
20200331125547 55 55 4.0 9.0 0.00 0.00 0.00 72 1020.7
20200331125046 55 15 1.0 11.0 0.00 0.00 0.00 72 1020.7
20200331124559 55 24 5.0 11.0 0.00 0.00 0.00 72 1020.7
20200331124049 55 13 2.0 8.0 0.00 0.00 0.00 72 1020.7
20200331123542 55 19 1.0 8.0 0.00 0.00 0.00 72 1020.6
20200331123042 55 345 1.0 10.0 0.00 0.00 0.00 72 1020.6
20200331122539 54 5 2.0 10.0 0.00 0.00 0.00 73 1020.6
20200331122038 54 26 3.0 9.0 0.00 0.00 0.00 73 1020.6
20200331121548 54 32 1.0 9.0 0.00 0.00 0.00 73 1020.6
20200331121057 54 19 4.0 8.0 0.00 0.00 0.00 73 1020.6
20200331120539 53 34 2.0 10.0 0.00 0.00 0.00 73 1020.6
20200331120046 53 30 3.0 8.0 0.00 0.00 0.00 73 1020.7
20200331115539 54 30 2.0 9.0 0.00 0.00 0.00 73 1020.8
20200331115038 54 28 5.0 10.0 0.00 0.00 0.00 73 1020.8
20200331114622 53 24 5.0 11.0 0.00 0.00 0.00 73 1020.8
20200331114039 53 32 5.0 11.0 0.00 0.00 0.00 74 1020.9
20200331113539 53 19 5.0 10.0 0.00 0.00 0.00 74 1020.9
20200331113040 53 31 4.0 10.0 0.00 0.00 0.00 74 1020.9
20200331112534 53 41 5.0 10.0 0.00 0.00 0.00 74 1020.9
20200331112042 53 31 5.0 9.0 0.00 0.00 0.00 74 1020.9
20200331111632 54 29 5.0 10.0 0.00 0.00 0.00 73 1020.9
20200331111033 54 32 4.0 10.0 0.00 0.00 0.00 73 1021.0
20200331110532 54 34 4.0 11.0 0.00 0.00 0.00 73 1021.0
20200331110038 54 32 6.0 11.0 0.00 0.00 0.00 74 1020.9
20200331105529 53 11 6.0 10.0 0.00 0.00 0.00 78 1021.0
20200331105028 50 18 4.0 10.0 0.00 0.00 0.00 84 1021.0
20200331104555 48 21 0.0 0.0 0.00 0.00 0.00 84 1021.2
20200331104026 49 21 0.0 0.0 0.00 0.00 0.00 84 1021.2
20200331103535 49 21 0.0 0.0 0.00 0.00 0.00 84 1021.3
20200331103057 49 21 0.0 0.0 0.00 0.00 0.00 84 1021.4
20200331102528 49 21 0.0 0.0 0.00 0.00 0.00 84 1021.3
20200331102025 49 21 0.0 0.0 0.00 0.00 0.00 84 1021.5
20200331101527 49 21 0.0 0.0 0.00 0.00 0.00 83 1021.4
20200331101028 50 21 0.0 3.0 0.00 0.00 0.00 84 1021.6
20200331100521 50 22 0.0 4.0 0.00 0.00 0.00 84 1021.7
20200331100023 49 22 0.0 4.0 0.00 0.00 0.00 85 1021.7
20200331095543 49 24 0.0 0.0 0.00 0.00 0.00 85 1021.7
20200331095018 49 24 0.0 0.0 0.00 0.00 0.00 85 1021.9
20200331094533 49 24 0.0 0.0 0.00 0.00 0.00 85 1021.9
20200331094017 49 24 0.0 0.0 0.00 0.00 0.00 86 1021.9
20200331093515 49 24 0.0 0.0 0.00 0.00 0.00 86 1022.0
20200331093015 49 24 0.0 0.0 0.00 0.00 0.00 86 1022.1
20200331092525 49 24 0.0 0.0 0.00 0.00 0.00 86 1022.1
20200331092039 49 24 0.0 0.0 0.00 0.00 0.00 87 1022.1
20200331091527 49 24 0.0 0.0 0.00 0.00 0.00 87 1022.2
20200331091017 49 24 0.0 0.0 0.00 0.00 0.00 87 1022.2
20200331090509 49 24 0.0 0.0 0.00 0.00 0.00 87 1022.2
20200331090014 49 24 0.0 0.0 0.00 0.00 0.00 88 1022.2
20200331085506 49 24 0.0 0.0 0.00 0.00 0.00 88 1022.2
20200331085005 49 24 0.0 0.0 0.00 0.00 0.00 88 1022.2
20200331084508 49 24 0.0 0.0 0.00 0.00 0.00 89 1022.2
20200331084006 49 24 0.0 3.0 0.00 0.00 0.00 90 1022.2
20200331083154 47 30 0.0 0.0 0.00 0.00 0.00 90 1022.4
20200331082559 47 30 0.0 1.0 0.00 0.00 0.00 90 1022.6
20200331082059 47 30 0.0 1.0 0.00 0.00 0.00 90 1022.7
20200331081719 47 31 0.0 0.0 0.00 0.00 0.00 90 1022.8
20200331081059 47 30 0.0 0.0 0.00 0.00 0.00 90 1022.9
20200331080604 47 31 0.0 0.0 0.00 0.00 0.00 90 1023.0
20200331080350 47 30 0.0 0.0 0.00 0.00 0.00 89 1023.0
20200331075555 47 31 0.0 0.0 0.00 0.00 0.00 89 1023.2
20200331075053 47 30 0.0 0.0 0.00 0.00 0.00 90 1023.1
20200331074620 47 30 0.0 0.0 0.00 0.00 0.00 90 1023.1
20200331074052 47 30 0.0 0.0 0.00 0.00 0.00 89 1023.1
20200331073552 47 31 0.0 0.0 0.00 0.00 0.00 89 1023.2
20200331073141 48 31 0.0 0.0 0.00 0.00 0.00 90 1023.3
20200331072550 48 30 0.0 0.0 0.00 0.00 0.00 89 1023.4
20200331072050 48 31 0.0 0.0 0.00 0.00 0.00 90 1023.4
20200331071825 48 30 0.0 0.0 0.00 0.00 0.00 89 1023.4
20200331071053 48 30 0.0 0.0 0.00 0.00 0.00 89 1023.4
20200331070553 48 30 0.0 4.0 0.00 0.00 0.00 89 1023.3
20200331070107 48 31 0.0 4.0 0.00 0.00 0.00 90 1023.4
20200331065546 48 30 0.0 0.0 0.00 0.00 0.00 89 1023.4
20200331065046 48 30 0.0 0.0 0.00 0.00 0.00 90 1023.4
20200331064607 48 30 0.0 3.0 0.00 0.00 0.00 90 1023.4
20200331064055 48 30 0.0 3.0 0.00 0.00 0.00 89 1023.4
20200331063607 48 30 0.0 0.0 0.00 0.00 0.00 89 1023.5
20200331063136 48 30 0.0 3.0 0.00 0.00 0.00 89 1023.5
20200331062550 48 30 0.0 3.0 0.00 0.00 0.00 89 1023.5
20200331062046 48 30 1.0 3.0 0.00 0.00 0.00 88 1023.6
20200331061610 49 30 0.0 3.0 0.00 0.00 0.00 88 1023.7
20200331061045 49 30 0.0 3.0 0.00 0.00 0.00 88 1023.7
20200331060545 49 30 0.0 4.0 0.00 0.00 0.00 88 1023.6
20200331060104 49 30 1.0 4.0 0.00 0.00 0.00 88 1023.7
20200331055549 49 30 0.0 0.0 0.00 0.00 0.00 88 1023.7
20200331055100 49 30 0.0 0.0 0.00 0.00 0.00 87 1023.6
20200331054625 49 30 0.0 0.0 0.00 0.00 0.00 87 1023.5
20200331054043 50 30 0.0 0.0 0.00 0.00 0.00 87 1023.6
20200331053543 50 30 0.0 0.0 0.00 0.00 0.00 86 1023.6
20200331053100 50 30 0.0 0.0 0.00 0.00 0.00 86 1023.5
20200331052556 50 30 0.0 0.0 0.00 0.00 0.00 86 1023.5
20200331052104 50 30 0.0 0.0 0.00 0.00 0.00 86 1023.6
20200331051606 50 30 0.0 4.0 0.00 0.00 0.00 85 1023.5
20200331051043 50 30 0.0 6.0 0.00 0.00 0.00 85 1023.4
20200331050553 50 30 2.0 6.0 0.00 0.00 0.00 85 1023.4
20200331050052 51 29 1.0 6.0 0.00 0.00 0.00 85 1023.4
20200331045555 51 9 0.0 4.0 0.00 0.00 0.00 84 1023.5
20200331045042 51 5 0.0 4.0 0.00 0.00 0.00 84 1023.5
20200331044553 51 5 1.0 3.0 0.00 0.00 0.00 83 1023.5
20200331044042 51 5 0.0 0.0 0.00 0.00 0.00 82 1023.4
20200331043546 51 5 0.0 0.0 0.00 0.00 0.00 82 1023.5
20200331043156 51 5 0.0 0.0 0.00 0.00 0.00 82 1023.4
20200331042543 52 5 0.0 0.0 0.00 0.00 0.00 82 1023.3
20200331042042 52 5 0.0 0.0 0.00 0.00 0.00 81 1023.3
20200331041618 52 5 0.0 0.0 0.00 0.00 0.00 81 1023.2
20200331041041 52 5 0.0 1.0 0.00 0.00 0.00 81 1023.2
20200331040541 52 5 0.0 1.0 0.00 0.00 0.00 81 1023.0
20200331040109 52 5 0.0 1.0 0.00 0.00 0.00 80 1023.1
20200331035546 52 5 0.0 0.0 0.00 0.00 0.00 80 1023.1
20200331035045 52 5 0.0 0.0 0.00 0.00 0.00 80 1023.0
20200331034556 52 5 0.0 1.0 0.00 0.00 0.00 80 1022.9
20200331034049 52 5 0.0 1.0 0.00 0.00 0.00 79 1022.8
20200331033545 52 5 0.0 4.0 0.00 0.00 0.00 79 1022.7
20200331033202 53 5 0.0 4.0 0.00 0.00 0.00 79 1022.7
20200331032545 53 350 0.0 0.0 0.00 0.00 0.00 78 1022.8
20200331032046 53 350 0.0 0.0 0.00 0.00 0.00 78 1022.7
20200331031744 53 350 0.0 0.0 0.00 0.00 0.00 77 1022.5
20200331031056 53 350 0.0 3.0 0.00 0.00 0.00 77 1022.5
20200331030545 54 350 0.0 3.0 0.00 0.00 0.00 76 1022.5
20200331030141 54 331 0.0 1.0 0.00 0.00 0.00 75 1022.5
20200331025533 54 332 0.0 3.0 0.00 0.00 0.00 75 1022.4
20200331025038 54 332 0.0 3.0 0.00 0.00 0.00 74 1022.4
20200331024626 55 332 0.0 6.0 0.00 0.00 0.00 74 1022.4
20200331024034 55 323 0.0 9.0 0.00 0.00 0.00 73 1022.3
20200331023536 55 351 0.0 9.0 0.00 0.00 0.00 73 1022.3
20200331023133 55 311 0.0 10.0 0.00 0.00 0.00 72 1022.3
20200331022533 55 349 1.0 10.0 0.00 0.00 0.00 72 1022.2
20200331022035 56 306 1.0 14.0 0.00 0.00 0.00 71 1022.2
20200331021757 56 338 4.0 15.0 0.00 0.00 0.00 71 1022.0
20200331021032 56 321 2.0 15.0 0.00 0.00 0.00 70 1022.0
20200331020533 57 20 4.0 14.0 0.00 0.00 0.00 68 1021.9
20200331020130 57 280 2.0 14.0 0.00 0.00 0.00 68 1022.0
20200331015542 57 46 2.0 12.0 0.00 0.00 0.00 66 1021.9
20200331015042 57 347 3.0 11.0 0.00 0.00 0.00 66 1022.0
20200331014654 58 13 4.0 12.0 0.00 0.00 0.00 65 1022.0
20200331014042 58 327 3.0 12.0 0.00 0.00 0.00 65 1022.0
20200331013545 58 5 2.0 12.0 0.00 0.00 0.00 64 1022.0
20200331013137 59 284 3.0 12.0 0.00 0.00 0.00 64 1022.0
20200331012555 59 24 4.0 11.0 0.00 0.00 0.00 64 1022.0
20200331012041 59 336 2.0 13.0 0.00 0.00 0.00 64 1022.0
20200331011605 59 313 2.0 13.0 0.00 0.00 0.00 64 1021.9
20200331011041 59 333 3.0 12.0 0.00 0.00 0.00 63 1021.9
20200331010559 60 275 2.0 11.0 0.00 0.00 0.00 64 1021.9
20200331010128 60 342 5.0 12.0 0.00 0.00 0.00 63 1021.9
20200331005553 60 331 2.0 12.0 0.00 0.00 0.00 63 1021.8
20200331005059 60 5 1.0 12.0 0.00 0.00 0.00 63 1021.8
20200331004553 60 321 2.0 13.0 0.00 0.00 0.00 62 1021.8
20200331004116 60 355 4.0 14.0 0.00 0.00 0.00 62 1021.7
20200331003600 60 331 7.0 18.0 0.00 0.00 0.00 61 1021.7
20200331003145 60 11 6.0 16.0 0.00 0.00 0.00 62 1021.7
20200331002619 60 345 5.0 16.0 0.00 0.00 0.00 62 1021.7
20200331002051 60 344 5.0 17.0 0.00 0.00 0.00 63 1021.7
20200331001720 60 319 4.0 17.0 0.00 0.00 0.00 63 1021.7
20200331001051 60 270 5.0 17.0 0.00 0.00 0.00 63 1021.8
20200331000549 60 351 4.0 15.0 0.00 0.00 0.00 65 1021.7
20200331000108 60 24 6.0 15.0 0.00 0.00 0.00 66 1021.8
20200330235551 60 276 4.0 18.0 0.00 0.00 0.00 65 1021.8
20200330235045 60 329 4.0 18.0 0.00 0.00 0.00 64 1021.9
20200330234044 61 253 4.0 15.0 0.00 0.00 0.00 65 1021.9
20200330233545 62 314 4.0 15.0 0.00 0.00 0.00 65 1022.1
20200330233208 63 78 2.0 15.0 0.00 0.00 0.00 63 1022.1
20200330232546 64 355 3.0 15.0 0.00 0.00 0.00 62 1022.2
20200330232043 65 194 2.0 14.0 0.00 0.00 0.00 62 1022.2
20200330231553 65 310 2.0 10.0 0.00 0.00 0.00 60 1022.3
20200330231059 65 32 3.0 12.0 0.00 0.00 0.00 59 1022.5
20200330230543 66 311 2.0 12.0 0.00 0.00 0.00 59 1022.5
20200330230240 67 292 1.0 12.0 0.00 0.00 0.00 60 1022.5
20200330225545 67 290 2.0 12.0 0.00 0.00 0.00 58 1022.7
20200330225046 67 172 0.0 8.0 0.00 0.00 0.00 59 1022.7
20200330224607 68 139 1.0 8.0 0.00 0.00 0.00 59 1022.7
20200330224105 68 206 0.0 9.0 0.00 0.00 0.00 58 1022.7
20200330223549 68 175 1.0 9.0 0.00 0.00 0.00 57 1022.7
20200330223119 68 196 0.0 10.0 0.00 0.00 0.00 58 1022.7
20200330222550 68 288 1.0 8.0 0.00 0.00 0.00 57 1022.8
20200330222048 68 345 0.0 8.0 0.00 0.00 0.00 56 1022.8
20200330221645 69 336 2.0 9.0 0.00 0.00 0.00 57 1022.8
20200330221044 68 149 0.0 9.0 0.00 0.00 0.00 60 1022.9
20200330220548 68 307 3.0 11.0 0.00 0.00 0.00 57 1023.0
20200330220058 68 323 2.0 11.0 0.00 0.00 0.00 57 1023.0
20200330215602 68 332 4.0 10.0 0.00 0.00 0.00 57 1022.9
20200330215056 69 315 1.0 11.0 0.00 0.00 0.00 56 1023.0
20200330214750 69 313 1.0 5.0 0.00 0.00 0.00 56 1023.0
20200330214059 69 296 0.0 5.0 0.00 0.00 0.00 55 1023.0
20200330213600 69 320 1.0 8.0 0.00 0.00 0.00 58 1023.0
20200330212552 69 244 0.0 5.0 0.00 0.00 0.00 58 1023.2
20200330212056 69 244 0.0 5.0 0.00 0.00 0.00 59 1023.2
20200330211641 69 246 0.0 4.0 0.00 0.00 0.00 57 1023.3
20200330211057 68 246 0.0 7.0 0.00 0.00 0.00 57 1023.3
20200330210551 68 246 1.0 10.0 0.00 0.00 0.00 56 1023.3
20200330210110 68 250 2.0 10.0 0.00 0.00 0.00 56 1023.3
20200330205547 68 236 0.0 12.0 0.00 0.00 0.00 58 1023.4
20200330205042 68 232 0.0 12.0 0.00 0.00 0.00 57 1023.4
20200330204549 69 215 0.0 5.0 0.00 0.00 0.00 57 1023.4
20200330204047 68 214 0.0 8.0 0.00 0.00 0.00 59 1023.5
20200330203551 69 220 2.0 8.0 0.00 0.00 0.00 54 1023.5
20200330203137 70 263 0.0 8.0 0.00 0.00 0.00 54 1023.7
20200330202543 69 265 0.0 8.0 0.00 0.00 0.00 54 1023.7
20200330202045 70 245 2.0 5.0 0.00 0.00 0.00 54 1023.7
20200330201624 70 248 0.0 3.0 0.00 0.00 0.00 53 1023.8
20200330201039 69 248 0.0 7.0 0.00 0.00 0.00 52 1023.7
20200330200539 69 324 0.0 8.0 0.00 0.00 0.00 51 1023.9
20200330200124 69 333 0.0 9.0 0.00 0.00 0.00 49 1023.9
20200330195616 69 335 3.0 9.0 0.00 0.00 0.00 50 1024.0
20200330195057 68 338 1.0 6.0 0.00 0.00 0.00 51 1024.1
20200330194637 69 338 2.0 6.0 0.00 0.00 0.00 50 1024.3
20200330194055 69 323 1.0 9.0 0.00 0.00 0.00 51 1024.3
20200330193552 69 319 0.0 6.0 0.00 0.00 0.00 50 1024.4
20200330193202 69 319 0.0 8.0 0.00 0.00 0.00 51 1024.4
20200330192549 68 318 1.0 8.0 0.00 0.00 0.00 52 1024.6
20200330192049 68 314 0.0 8.0 0.00 0.00 0.00 53 1024.6
20200330191615 68 313 0.0 8.0 0.00 0.00 0.00 52 1024.8
20200330191049 67 302 1.0 8.0 0.00 0.00 0.00 52 1025.0
20200330190547 67 294 0.0 3.0 0.00 0.00 0.00 51 1025.0
20200330190127 68 302 0.0 4.0 0.00 0.00 0.00 53 1025.0
20200330185550 68 320 0.0 4.0 0.00 0.00 0.00 49 1025.0
20200330185055 68 321 0.0 3.0 0.00 0.00 0.00 54 1025.1
20200330184556 67 331 0.0 6.0 0.00 0.00 0.00 58 1025.0
20200330184046 67 335 0.0 6.0 0.00 0.00 0.00 53 1025.0
20200330183545 66 344 0.0 2.0 0.00 0.00 0.00 56 1025.1
20200330183049 65 344 0.0 5.0 0.00 0.00 0.00 54 1025.0
20200330182546 65 344 1.0 5.0 0.00 0.00 0.00 56 1025.1
20200330182041 64 27 0.0 4.0 0.00 0.00 0.00 58 1024.9
20200330181627 64 27 1.0 9.0 0.00 0.00 0.00 58 1025.0
20200330181041 64 25 3.0 9.0 0.00 0.00 0.00 59 1025.0
20200330180536 63 23 3.0 9.0 0.00 0.00 0.00 58 1024.9
20200330180149 63 53 1.0 7.0 0.00 0.00 0.00 59 1024.9
20200330175553 64 221 0.0 6.0 0.00 0.00 0.00 57 1024.9
20200330175052 63 38 0.0 8.0 0.00 0.00 0.00 61 1024.9
20200330174713 63 40 3.0 8.0 0.00 0.00 0.00 58 1024.9
20200330174057 63 15 0.0 6.0 0.00 0.00 0.00 60 1024.9
20200330173605 63 15 0.0 6.0 0.00 0.00 0.00 61 1024.9
20200330173132 63 14 0.0 8.0 0.00 0.00 0.00 60 1024.9